Lid_Strength_Index
1 1 1 1 1 1 1 2 4 6 5 3 2 0 -0 -1 0 0 1 1 1 2 2 2 0 -1 -1 -1 -1 -1 -1 -0 0 1 1 2 2 2
1 1 1 1 1 1 1 1 2 3 5 2 2 0 -0 -1 -0 -0 -0 1 1 1 -0 0 0 0 0 0 -0 0 0 1 1 2 2 2 2 3
1 1 1 1 1 1 1 1 2 2 4 3 1 0 0 0 1 -0 0 1 0 0 0 1 1 1 1 1 1 1 1 2 2 2 3 3 3 3
1 1 1 1 1 1 1 2 2 1 2 4 2 1 1 0 1 0 -0 0 1 1 1 1 2 2 2 2 2 3 3 3 3 3 3 4 4 5
1 1 1 1 2 2 2 1 1 1 2 2 3 1 1 1 1 0 0 1 0 0 2 2 2 3 3 3 3 4 4 5 5 5 5 4 4 5
1 1 1 1 1 1 1 2 1 2 2 2 2 2 2 1 1 2 2 1 1 2 2 3 3 3 3 4 3 3 5 6 6 6 7 7 7 6
1 1 1 1 2 1 1 1 1 2 2 2 3 3 3 3 3 2 2 1 1 1 3 4 5 5 5 4 4 3 4 6 7 7 8 8 9 8
1 1 2 4 5 5 4 3 2 2 2 3 3 3 3 2 2 2 2 3 4 1 2 3 5 6 6 5 5 6 6 6 7 7 8 9 9 9
1 2 2 2 1 2 5 5 5 5 3 1 3 3 3 2 2 2 2 3 3 2 2 3 1 3 3 3 5 7 7 8 8 8 8 9 9 9
1 1 1 1 1 1 1 1 1 1 1 0 1 1 1 2 1 1 2 2 1 1 1 3 2 2 1 1 5 7 7 8 8 8 9 9 10 10
1 1 1 1 6 6 1 2 2 2 6 7 7 9 10 10 8 2 2 3 4 3 1 2 2 2 2 2 3 7 8 8 9 9 9 9 10 10
1 4 7 2 8 7 1 2 2 2 2 4 4 6 9 6 9 4 4 5 6 6 4 6 6 7 8 5 6 7 8 8 9 9 9 9 10 11
1 1 4 8 9 9 8 1 4 5 4 2 2 1 1 0 2 3 2 4 5 6 4 5 6 6 8 8 8 7 8 8 9 9 9 9 8 8
2 2 4 10 9 10 8 10 9 6 3 2 2 2 2 1 2 1 1 2 2 3 3 4 6 6 8 8 8 7 7 6 7 9 8 7 7 7
2 4 9 10 9 10 10 9 9 4 3 3 2 2 1 2 3 3 3 5 4 4 3 5 5 6 7 8 8 7 7 6 5 6 6 6 6 8
7 8 9 8 7 6 7 9 6 4 3 2 2 3 3 4 5 6 6 6 7 7 5 5 5 5 6 6 6 5 5 7 6 5 5 6 5 3
1 2 2 2 3 3 2 1 2 2 3 1 3 5 6 6 6 6 7 7 7 7 7 6 6 6 4 5 6 6 6 6 5 5 4 5 4 3
3 2 2 2 2 2 2 2 1 2 3 4 6 7 7 7 8 7 7 8 8 8 8 8 7 7 6 4 3 5 6 6 5 4 4 5 4 2
3 2 2 2 2 2 2 2 5 5 5 6 7 7 8 8 8 8 8 8 9 9 8 7 7 7 8 9 6 5 6 6 6 6 5 5 4 2
2 2 2 2 2 3 4 6 6 7 7 7 7 7 7 7 8 9 8 9 9 8 8 7 6 8 8 8 8 6 7 6 7 7 7 5 3 2
3 2 1 2 4 4 6 6 6 6 7 7 7 7 8 8 8 8 9 11 10 9 8 7 7 10 6 6 9 8 6 5 6 6 5 5 5 5
2 1 2 4 6 6 6 6 6 7 7 7 8 8 7 8 9 9 9 9 8 7 7 7 6 7 8 9 9 9 8 7 5 3 3 3 5 6
1 2 5 6 5 5 6 7 7 8 8 9 8 8 8 9 9 8 9 8 7 7 7 8 8 8 9 9 9 8 7 8 6 5 4 2 2 2